,,Stat6,,Stat2,,Stat8,,Stat9,,Stat10,,Wind1,,Wind1,
time,status,PA1M_AVG,status,PR1M_SUM,status,RH1M_AVG,status,SR1M_AVG,status,TA1M_AVG,status,W1dAve1m,status,W1sAve1m,
2006-10-07, 07:00:01,VALID,920.771,VALID,0,VALID,100,VALID,-0.0169808,VALID,17.2827,VALID,14,VALID,1.21094,
2006-10-07, 07:01:00,VALID,920.741,VALID,0,VALID,100,VALID,-0.0509425,VALID,17.3087,VALID,15,VALID,1.36161,
2006-10-07, 07:02:00,VALID,920.729,VALID,0,VALID,100,VALID,-0.0169808,VALID,17.3153,VALID,12,VALID,1.26777,
2006-10-07, 07:03:00,VALID,920.708,VALID,0,VALID,100,VALID,-0.0339617,VALID,17.3211,VALID,346,VALID,1.08516,
2006-10-07, 07:04:00,VALID,920.677,VALID,0,VALID,100,VALID,-0.0509425,VALID,17.3409,VALID,344,VALID,0.906994,
2006-10-07, 07:05:00,VALID,920.646,VALID,0,VALID,100,VALID,-0.0509425,VALID,17.3218,VALID,1,VALID,1.18259,
2006-10-07, 07:06:00,VALID,920.611,VALID,0,VALID,100,VALID,-0.0339617,VALID,17.2895,VALID,352,VALID,1.1804,
2006-10-07, 07:07:00,VALID,920.567,VALID,0,VALID,100,VALID,-0.0169808,VALID,17.2764,VALID,342,VALID,0.94549,
2006-10-07, 07:08:00,VALID,920.487,VALID,0,VALID,100,VALID,-0.0169808,VALID,17.27,VALID,322,VALID,1.16592,
2006-10-07, 07:09:00,VALID,920.466,VALID,0,VALID,100,VALID,0,VALID,17.2637,VALID,320,VALID,1.31421,
2006-10-07, 07:10:00,VALID,920.446,VALID,0,VALID,100,VALID,-0.0339617,VALID,17.2472,VALID,316,VALID,1.11942,
2006-10-07, 07:11:00,VALID,920.435,VALID,0,VALID,100,VALID,-0.0509425,VALID,17.2375,VALID,320,VALID,1.08285,
2006-10-07, 07:12:00,VALID,920.399,VALID,0,VALID,100,VALID,-0.0169808,VALID,17.2382,VALID,310,VALID,1.07279,
2006-10-07, 07:13:00,VALID,920.383,VALID,0,VALID,100,VALID,0,VALID,17.2283,VALID,321,VALID,1.14482,
2006-10-07, 07:14:00,VALID,920.373,VALID,0,VALID,100,VALID,0,VALID,17.2184,VALID,339,VALID,0.827381,
2006-10-07, 07:15:00,VALID,920.37,VALID,0,VALID,100,VALID,-0.0339617,VALID,17.1958,VALID,357,VALID,0.840774,
2006-10-07, 07:16:00,VALID,920.353,VALID,0,VALID,100,VALID,-0.0339617,VALID,17.1859,VALID,15,VALID,0.986523,
2006-10-07, 07:17:00,VALID,920.345,VALID,0,VALID,100,VALID,-0.0169808,VALID,17.1859,VALID,25,VALID,0.844939,
2006-10-07, 07:18:00,VALID,920.337,VALID,0,VALID,100,VALID,-0.0169808,VALID,17.1921,VALID,21,VALID,0.790799,
2006-10-07, 07:19:00,VALID,920.326,VALID,0,VALID,100,VALID,-0.0339617,VALID,17.199,VALID,14,VALID,0.735465,
2006-10-07, 07:20:00,VALID,920.303,VALID,0,VALID,100,VALID,-0.0169808,VALID,17.1986,VALID,14,VALID,0.776634,
2006-10-07, 07:21:00,VALID,920.287,VALID,0,VALID,100,VALID,0,VALID,17.1926,VALID,10,VALID,0.58718,
2006-10-07, 07:22:00,VALID,920.268,VALID,0,VALID,100,VALID,0,VALID,17.1891,VALID,355,VALID,0.770008,
2006-10-07, 07:23:00,VALID,920.249,VALID,0,VALID,100,VALID,0,VALID,17.2053,VALID,347,VALID,0.403299,
2006-10-07, 07:24:00,VALID,920.228,VALID,0,VALID,100,VALID,0,VALID,17.205,VALID,350,VALID,0.658854,
2006-10-07, 07:25:00,VALID,920.216,VALID,0,VALID,100,VALID,-0.0169808,VALID,17.1924,VALID,355,VALID,0.619004,
2006-10-07, 07:26:00,VALID,920.213,VALID,0,VALID,100,VALID,0,VALID,17.1855,VALID,359,VALID,0.802827,
2006-10-07, 07:27:00,VALID,920.202,VALID,0,VALID,100,VALID,0,VALID,17.1984,VALID,12,VALID,0.926339,
2006-10-07, 07:28:00,VALID,920.187,VALID,0,VALID,100,VALID,0,VALID,17.2083,VALID,20,VALID,0.894077,
2006-10-07, 07:29:00,VALID,920.196,VALID,0,VALID,100,VALID,0,VALID,17.2048,VALID,30,VALID,0.974085,
2006-10-07, 07:30:00,VALID,920.18,VALID,0,VALID,100,VALID,-0.0169808,VALID,17.2115,VALID,30,VALID,0.920422,
2006-10-07, 07:31:00,VALID,920.17,VALID,0,VALID,100,VALID,0,VALID,17.2115,VALID,34,VALID,1.04129,
2006-10-07, 07:32:00,VALID,920.169,VALID,0,VALID,100,VALID,0,VALID,17.2283,VALID,36,VALID,1.05432,
2006-10-07, 07:33:00,VALID,920.142,VALID,0,VALID,100,VALID,0,VALID,17.2242,VALID,36,VALID,0.787538,
2006-10-07, 07:34:00,VALID,920.114,VALID,0,VALID,100,VALID,0,VALID,17.2442,VALID,33,VALID,1.04634,
2006-10-07, 07:35:00,VALID,920.098,VALID,0,VALID,100,VALID,0,VALID,17.2212,VALID,37,VALID,1.3762,
2006-10-07, 07:36:00,VALID,920.082,VALID,0,VALID,100,VALID,-0.0169808,VALID,17.2308,VALID,25,VALID,1.14608,
2006-10-07, 07:37:00,VALID,920.06,VALID,0,VALID,100,VALID,-0.0169808,VALID,17.2276,VALID,20,VALID,1.49275,
2006-10-07, 07:38:00,VALID,920.029,VALID,0,VALID,100,VALID,0,VALID,17.2078,VALID,14,VALID,1.91349,
2006-10-07, 07:39:00,VALID,920.015,VALID,0,VALID,100,VALID,0.0169808,VALID,17.2278,VALID,19,VALID,1.52995,
2006-10-07, 07:40:00,VALID,920.003,VALID,0,VALID,100,VALID,0.0169808,VALID,17.2407,VALID,13,VALID,1.64489,
2006-10-07, 07:41:00,VALID,919.994,VALID,0,VALID,100,VALID,0,VALID,17.25,VALID,358,VALID,1.1222,
2006-10-07, 07:42:00,VALID,919.982,VALID,0,VALID,100,VALID,0,VALID,17.2665,VALID,356,VALID,1.06326,
2006-10-07, 07:43:00,VALID,919.966,VALID,0,VALID,100,VALID,0,VALID,17.2663,VALID,347,VALID,0.911272,
2006-10-07, 07:44:00,VALID,919.967,VALID,0,VALID,100,VALID,-0.0339617,VALID,17.276,VALID,338,VALID,0.726181,
2006-10-07, 07:45:00,VALID,919.96,VALID,0,VALID,100,VALID,0.0169808,VALID,17.2569,VALID,2,VALID,0.911133,
2006-10-07, 07:46:00,VALID,919.97,VALID,0,VALID,100,VALID,0,VALID,17.2506,VALID,10,VALID,0.795313,
2006-10-07, 07:47:00,VALID,919.966,VALID,0,VALID,100,VALID,0,VALID,17.2246,VALID,22,VALID,0.884811,
2006-10-07, 07:48:00,VALID,919.966,VALID,0,VALID,100,VALID,0,VALID,17.2149,VALID,41,VALID,1.10377,
2006-10-07, 07:49:00,VALID,919.96,VALID,0,VALID,100,VALID,0,VALID,17.2053,VALID,40,VALID,1.35139,
2006-10-07, 07:50:00,VALID,919.979,VALID,0,VALID,100,VALID,-0.0169808,VALID,17.2117,VALID,31,VALID,1.28072,
2006-10-07, 07:51:00,VALID,919.979,VALID,0,VALID,100,VALID,0.0169808,VALID,17.2053,VALID,24,VALID,1.20176,
2006-10-07, 07:52:00,VALID,919.99,VALID,0,VALID,100,VALID,-0.0169808,VALID,17.2117,VALID,26,VALID,1.36065,
2006-10-07, 07:53:00,VALID,920.003,VALID,0,VALID,100,VALID,0,VALID,17.2085,VALID,10,VALID,0.884961,
2006-10-07, 07:54:00,VALID,920.008,VALID,0,VALID,100,VALID,-0.0339617,VALID,17.2113,VALID,27,VALID,0.276296,
2006-10-07, 07:55:00,VALID,919.991,VALID,0,VALID,100,VALID,-0.0169808,VALID,17.2214,VALID,27,VALID,0.505632,
2006-10-07, 07:56:00,VALID,919.979,VALID,0,VALID,100,VALID,-0.0339617,VALID,17.222,VALID,27,VALID,0.208891,
2006-10-07, 07:57:00,VALID,919.969,VALID,0,VALID,100,VALID,-0.0339617,VALID,17.2216,VALID,27,VALID,0.0510417,
2006-10-07, 07:58:00,VALID,919.944,VALID,0,VALID,100,VALID,0,VALID,17.2343,VALID,27,VALID,0.0726207,
2006-10-07, 07:59:00,VALID,919.913,VALID,0,VALID,100,VALID,0,VALID,17.2536,VALID,27,VALID,0.234976,
2006-10-07, 08:00:00,VALID,919.882,VALID,0,VALID,100,VALID,0,VALID,17.247,VALID,332,VALID,0.762305,
2006-10-07, 08:01:00,VALID,919.871,VALID,0,VALID,100,VALID,0,VALID,17.2797,VALID,294,VALID,1.0151,
2006-10-07, 08:02:00,VALID,919.841,VALID,0,VALID,100,VALID,-0.0339617,VALID,17.2566,VALID,296,VALID,0.971946,
2006-10-07, 08:03:00,VALID,919.831,VALID,0,VALID,100,VALID,-0.0169808,VALID,17.2341,VALID,317,VALID,0.994965,
2006-10-07, 08:04:00,VALID,919.795,VALID,0,VALID,100,VALID,0,VALID,17.1891,VALID,334,VALID,0.942587,
2006-10-07, 08:05:00,VALID,919.77,VALID,0,VALID,100,VALID,-0.0169808,VALID,17.1638,VALID,345,VALID,0.960007,
2006-10-07, 08:06:00,VALID,919.753,VALID,0,VALID,100,VALID,0,VALID,17.141,VALID,336,VALID,1.22075,
2006-10-07, 08:07:00,VALID,919.734,VALID,0,VALID,100,VALID,0,VALID,17.1339,VALID,342,VALID,1.1984,
2006-10-07, 08:08:00,VALID,919.736,VALID,0,VALID,100,VALID,0,VALID,17.1502,VALID,353,VALID,1.03797,
2006-10-07, 08:09:00,VALID,919.731,VALID,0,VALID,100,VALID,0,VALID,17.15,VALID,354,VALID,0.775868,
2006-10-07, 08:10:01,VALID,919.723,VALID,0,VALID,100,VALID,0.0169808,VALID,17.1638,VALID,344,VALID,0.786328,
2006-10-07, 08:11:00,VALID,919.717,VALID,0,VALID,100,VALID,0,VALID,17.1601,VALID,339,VALID,0.351918,
2006-10-07, 08:12:01,VALID,919.703,VALID,0,VALID,100,VALID,0,VALID,17.1767,VALID,334,VALID,0.510356,
2006-10-07, 08:13:01,VALID,919.704,VALID,0,VALID,100,VALID,0.0169808,VALID,17.1726,VALID,322,VALID,0.85174,
2006-10-07, 08:14:01,VALID,919.702,VALID,0,VALID,100,VALID,0,VALID,17.1889,VALID,301,VALID,1.0545,
2006-10-07, 08:15:01,VALID,919.703,VALID,0,VALID,100,VALID,0,VALID,17.1855,VALID,313,VALID,1.01017,
2006-10-07, 08:16:00,VALID,919.702,VALID,0,VALID,100,VALID,0,VALID,17.1732,VALID,351,VALID,0.904861,
2006-10-07, 08:17:01,VALID,919.691,VALID,0,VALID,100,VALID,0,VALID,17.1702,VALID,20,VALID,1.37773,
2006-10-07, 08:18:00,VALID,919.678,VALID,0,VALID,100,VALID,0,VALID,17.1732,VALID,40,VALID,1.15536,
2006-10-07, 08:19:00,VALID,919.674,VALID,0,VALID,100,VALID,-0.0339617,VALID,17.1696,VALID,20,VALID,1.08339,
2006-10-07, 08:20:00,VALID,919.668,VALID,0,VALID,100,VALID,0,VALID,17.1792,VALID,19,VALID,1.1379,
2006-10-07, 08:21:00,VALID,919.653,VALID,0,VALID,100,VALID,0.0169808,VALID,17.1956,VALID,19,VALID,1.11864,
2006-10-07, 08:22:00,VALID,919.648,VALID,0,VALID,100,VALID,0.0169808,VALID,17.2143,VALID,22,VALID,1.18806,
2006-10-07, 08:23:01,VALID,919.637,VALID,0,VALID,100,VALID,0,VALID,17.2603,VALID,36,VALID,1.41479,
2006-10-07, 08:24:00,VALID,919.631,VALID,0,VALID,100,VALID,0,VALID,17.267,VALID,37,VALID,1.49455,
2006-10-07, 08:25:00,VALID,919.625,VALID,0,VALID,100,VALID,0,VALID,17.2702,VALID,29,VALID,1.21784,
2006-10-07, 08:26:00,VALID,919.613,VALID,0,VALID,100,VALID,0,VALID,17.267,VALID,26,VALID,1.27823,
2006-10-07, 08:27:00,VALID,919.618,VALID,0,VALID,100,VALID,0,VALID,17.2504,VALID,25,VALID,0.992773,
2006-10-07, 08:28:00,VALID,919.605,VALID,0,VALID,100,VALID,0,VALID,17.2635,VALID,24,VALID,0.886991,
2006-10-07, 08:29:01,VALID,919.589,VALID,0,VALID,100,VALID,0,VALID,17.2599,VALID,23,VALID,0.820858,
2006-10-07, 08:30:00,VALID,919.581,VALID,0,VALID,100,VALID,0.0169808,VALID,17.2504,VALID,22,VALID,0.130609,
2006-10-07, 08:31:00,VALID,919.568,VALID,0,VALID,100,VALID,0,VALID,17.2569,VALID,21,VALID,0.245821,
2006-10-07, 08:32:01,VALID,919.543,VALID,0,VALID,100,VALID,0,VALID,17.2725,VALID,21,VALID,0.284412,
2006-10-07, 08:33:00,VALID,919.539,VALID,0,VALID,100,VALID,0,VALID,17.302,VALID,21,VALID,0.0381541,
2006-10-07, 08:34:00,VALID,919.527,VALID,0,VALID,100,VALID,0,VALID,17.3244,VALID,21,VALID,0.224746,
2006-10-07, 08:35:00,VALID,919.505,VALID,0,VALID,100,VALID,0,VALID,17.3244,VALID,21,VALID,0.362537,
2006-10-07, 08:36:00,VALID,919.492,VALID,0,VALID,100,VALID,0,VALID,17.3216,VALID,21,VALID,0.561942,
2006-10-07, 08:37:01,VALID,919.473,VALID,0,VALID,100,VALID,0,VALID,17.325,VALID,7,VALID,0.595084,
2006-10-07, 08:38:00,VALID,919.455,VALID,0,VALID,100,VALID,0.0509425,VALID,17.2951,VALID,3,VALID,0.734189,
2006-10-07, 08:39:00,VALID,919.447,VALID,0,VALID,100,VALID,0,VALID,17.2827,VALID,3,VALID,0.906944,
2006-10-07, 08:40:00,VALID,919.425,VALID,0,VALID,100,VALID,0.0169808,VALID,17.2629,VALID,3,VALID,0.983994,
2006-10-07, 08:41:01,VALID,919.424,VALID,0,VALID,100,VALID,0.0339617,VALID,17.2691,VALID,1,VALID,0.892773,
2006-10-07, 08:42:01,VALID,919.413,VALID,0,VALID,100,VALID,0.0169808,VALID,17.2889,VALID,349,VALID,0.700977,
2006-10-07, 08:43:01,VALID,919.408,VALID,0,VALID,100,VALID,0,VALID,17.3016,VALID,342,VALID,0.677689,
2006-10-07, 08:44:00,VALID,919.404,VALID,0,VALID,100,VALID,0,VALID,17.3145,VALID,326,VALID,0.670313,
2006-10-07, 08:45:00,VALID,919.391,VALID,0,VALID,100,VALID,0.0169808,VALID,17.305,VALID,336,VALID,0.721058,
2006-10-07, 08:46:01,VALID,919.381,VALID,0,VALID,100,VALID,0.0339617,VALID,17.3115,VALID,356,VALID,0.956745,
2006-10-07, 08:47:00,VALID,919.374,VALID,0,VALID,100,VALID,0.0339617,VALID,17.3143,VALID,359,VALID,1.14634,
2006-10-07, 08:48:00,VALID,919.371,VALID,0,VALID,100,VALID,0.0169808,VALID,17.3343,VALID,358,VALID,1.00837,
2006-10-07, 08:49:00,VALID,919.363,VALID,0,VALID,100,VALID,0.0509425,VALID,17.3371,VALID,11,VALID,1.10076,
2006-10-07, 08:50:00,VALID,919.353,VALID,0,VALID,100,VALID,0.0509425,VALID,17.3534,VALID,20,VALID,1.12221,
2006-10-07, 08:51:01,VALID,919.352,VALID,0,VALID,100,VALID,0.0339617,VALID,17.3594,VALID,25,VALID,1.31676,
2006-10-07, 08:52:00,VALID,919.346,VALID,0,VALID,100,VALID,0,VALID,17.3794,VALID,27,VALID,1.12633,
2006-10-07, 08:53:00,VALID,919.321,VALID,0,VALID,100,VALID,-0.0849042,VALID,17.3865,VALID,21,VALID,1.20222,
2006-10-07, 08:54:01,VALID,919.315,VALID,0,VALID,100,VALID,-0.0509425,VALID,17.4003,VALID,18,VALID,1.53754,
2006-10-07, 08:55:00,VALID,919.304,VALID,0,VALID,100,VALID,-0.0509425,VALID,17.3996,VALID,23,VALID,1.48262,
2006-10-07, 08:56:00,VALID,919.3,VALID,0,VALID,100,VALID,-0.0509425,VALID,17.4156,VALID,21,VALID,1.40039,
2006-10-07, 08:57:00,VALID,919.294,VALID,0,VALID,100,VALID,-0.0679233,VALID,17.4156,VALID,31,VALID,1.47542,
2006-10-07, 08:58:01,VALID,919.272,VALID,0,VALID,100,VALID,-0.0509425,VALID,17.4287,VALID,32,VALID,1.48147,
2006-10-07, 08:59:00,VALID,919.256,VALID,0,VALID,100,VALID,-0.101885,VALID,17.4386,VALID,32,VALID,1.16611,
2006-10-07, 09:00:00,VALID,919.227,VALID,0,VALID,100,VALID,-0.101885,VALID,17.4319,VALID,28,VALID,1.29749,
2006-10-07, 09:01:01,VALID,919.203,VALID,0,VALID,100,VALID,-0.101885,VALID,17.4384,VALID,28,VALID,1.3354,
2006-10-07, 09:02:00,VALID,919.189,VALID,0,VALID,100,VALID,-0.101885,VALID,17.4384,VALID,37,VALID,1.2649,
2006-10-07, 09:03:01,VALID,919.174,VALID,0,VALID,100,VALID,-0.0679233,VALID,17.4515,VALID,29,VALID,1.61793,
2006-10-07, 09:04:00,VALID,919.163,VALID,0,VALID,100,VALID,-0.101885,VALID,17.4416,VALID,26,VALID,1.04457,
2006-10-07, 09:05:00,VALID,919.145,VALID,0,VALID,100,VALID,-0.0849042,VALID,17.4384,VALID,23,VALID,1.39281,
2006-10-07, 09:06:00,VALID,919.135,VALID,0,VALID,100,VALID,-0.0509425,VALID,17.4319,VALID,17,VALID,1.62723,
2006-10-07, 09:07:01,VALID,919.137,VALID,0,VALID,100,VALID,-0.0509425,VALID,17.4119,VALID,26,VALID,2.00957,
2006-10-07, 09:08:01,VALID,919.136,VALID,0,VALID,100,VALID,0.0339617,VALID,17.3884,VALID,31,VALID,1.64844,
2006-10-07, 09:09:00,VALID,919.132,VALID,0,VALID,100,VALID,0,VALID,17.3917,VALID,30,VALID,1.78125,
2006-10-07, 09:10:01,VALID,919.128,VALID,0,VALID,100,VALID,0.0339617,VALID,17.4048,VALID,24,VALID,1.56179,
2006-10-07, 09:11:00,VALID,919.107,VALID,0,VALID,100,VALID,0.0169808,VALID,17.4147,VALID,26,VALID,2.03072,
2006-10-07, 09:12:00,VALID,919.09,VALID,0,VALID,100,VALID,0.0169808,VALID,17.4211,VALID,26,VALID,1.9177,
2006-10-07, 09:13:00,VALID,919.086,VALID,0,VALID,100,VALID,0,VALID,17.44,VALID,29,VALID,2.19493,
2006-10-07, 09:14:00,VALID,919.066,VALID,0,VALID,100,VALID,0.0509425,VALID,17.4564,VALID,25,VALID,1.94404,
2006-10-07, 09:15:00,VALID,919.061,VALID,0,VALID,100,VALID,0.0339617,VALID,17.4757,VALID,33,VALID,1.84687,
2006-10-07, 09:16:01,VALID,919.047,VALID,0,VALID,100,VALID,0.0169808,VALID,17.4852,VALID,28,VALID,2.22075,
2006-10-07, 09:17:00,VALID,919.032,VALID,0,VALID,100,VALID,0.0339617,VALID,17.5273,VALID,25,VALID,1.37976,
2006-10-07, 09:18:00,VALID,919.011,VALID,0,VALID,100,VALID,0.0339617,VALID,17.5241,VALID,34,VALID,1.8192,
2006-10-07, 09:19:01,VALID,919,VALID,0,VALID,100,VALID,0.0509425,VALID,17.4951,VALID,29,VALID,1.65225,
2006-10-07, 09:20:01,VALID,918.994,VALID,0,VALID,100,VALID,0.0169808,VALID,17.4665,VALID,25,VALID,1.42778,
2006-10-07, 09:21:00,VALID,918.991,VALID,0,VALID,100,VALID,0.0169808,VALID,17.4338,VALID,21,VALID,1.6746,
2006-10-07, 09:22:00,VALID,918.981,VALID,0,VALID,100,VALID,-0.0169808,VALID,17.4179,VALID,20,VALID,1.62556,
2006-10-07, 09:23:01,VALID,918.977,VALID,0,VALID,100,VALID,-0.0679233,VALID,17.419,VALID,28,VALID,1.49695,
2006-10-07, 09:24:01,VALID,918.967,VALID,0,VALID,100,VALID,-0.101885,VALID,17.4317,VALID,31,VALID,1.41071,
2006-10-07, 09:25:00,VALID,918.948,VALID,0,VALID,100,VALID,-0.101885,VALID,17.451,VALID,27,VALID,1.3992,
2006-10-07, 09:26:01,VALID,918.931,VALID,0,VALID,100,VALID,-0.0679233,VALID,17.4543,VALID,21,VALID,1.71693,
2006-10-07, 09:27:01,VALID,918.908,VALID,0,VALID,100,VALID,-0.0849042,VALID,17.4672,VALID,30,VALID,1.54078,
2006-10-07, 09:28:00,VALID,918.877,VALID,0,VALID,100,VALID,-0.101885,VALID,17.4867,VALID,33,VALID,1.26007,
2006-10-07, 09:29:01,VALID,918.854,VALID,0,VALID,100,VALID,-0.0849042,VALID,17.4773,VALID,28,VALID,1.80183,
2006-10-07, 09:30:00,VALID,918.841,VALID,0,VALID,100,VALID,-0.0679233,VALID,17.4803,VALID,27,VALID,2.17081,
2006-10-07, 09:31:00,VALID,918.81,VALID,0,VALID,100,VALID,-0.0849042,VALID,17.4872,VALID,39,VALID,2.2024,
2006-10-07, 09:32:01,VALID,918.784,VALID,0,VALID,100,VALID,-0.0849042,VALID,17.4837,VALID,41,VALID,2.26602,
2006-10-07, 09:33:00,VALID,918.772,VALID,0,VALID,100,VALID,-0.0509425,VALID,17.4897,VALID,33,VALID,2.1974,
2006-10-07, 09:34:00,VALID,918.77,VALID,0,VALID,100,VALID,-0.0849042,VALID,17.4863,VALID,38,VALID,2.22275,
2006-10-07, 09:35:01,VALID,918.76,VALID,0,VALID,100,VALID,-0.101885,VALID,17.4996,VALID,37,VALID,2.11044,
2006-10-07, 09:36:00,VALID,918.746,VALID,0,VALID,100,VALID,-0.101885,VALID,17.4867,VALID,38,VALID,1.78178,
2006-10-07, 09:37:00,VALID,918.732,VALID,0,VALID,100,VALID,-0.0509425,VALID,17.4865,VALID,40,VALID,1.70964,
2006-10-07, 09:38:00,VALID,918.726,VALID,0,VALID,100,VALID,0.0339617,VALID,17.4723,VALID,48,VALID,1.65251,
2006-10-07, 09:39:00,VALID,918.728,VALID,0,VALID,100,VALID,0.0509425,VALID,17.4691,VALID,39,VALID,2.44512,
2006-10-07, 09:40:00,VALID,918.72,VALID,0,VALID,100,VALID,0.0169808,VALID,17.4921,VALID,36,VALID,1.88834,
2006-10-07, 09:41:00,VALID,918.72,VALID,0,VALID,100,VALID,0,VALID,17.4886,VALID,24,VALID,1.53659,
2006-10-07, 09:42:01,VALID,918.713,VALID,0,VALID,99.9377,VALID,0.0339617,VALID,17.5052,VALID,39,VALID,2.3924,
2006-10-07, 09:43:00,VALID,918.703,VALID,0,VALID,99.7981,VALID,0.0169808,VALID,17.5336,VALID,45,VALID,1.77287,
2006-10-07, 09:44:00,VALID,918.677,VALID,0,VALID,99.601,VALID,0,VALID,17.54,VALID,39,VALID,2.45153,
2006-10-07, 09:45:01,VALID,918.667,VALID,0,VALID,99.3403,VALID,0,VALID,17.5889,VALID,40,VALID,2.43732,
2006-10-07, 09:46:01,VALID,918.66,VALID,0,VALID,99.1038,VALID,0.0509425,VALID,17.6336,VALID,33,VALID,2.08739,
2006-10-07, 09:47:00,VALID,918.644,VALID,0,VALID,98.8431,VALID,0,VALID,17.6594,VALID,31,VALID,2.00136,
2006-10-07, 09:48:00,VALID,918.642,VALID,0,VALID,98.6066,VALID,0.0849042,VALID,17.7045,VALID,36,VALID,2.53906,
2006-10-07, 09:49:01,VALID,918.622,VALID,0,VALID,98.379,VALID,0.0169808,VALID,17.7239,VALID,48,VALID,2.29106,
2006-10-07, 09:50:00,VALID,918.597,VALID,0,VALID,98.2238,VALID,0.0169808,VALID,17.7564,VALID,48,VALID,1.66442,
2006-10-07, 09:51:01,VALID,918.572,VALID,0,VALID,98.1119,VALID,0,VALID,17.7727,VALID,48,VALID,1.96711,
2006-10-07, 09:52:01,VALID,918.56,VALID,0,VALID,98.1272,VALID,-0.0339617,VALID,17.7762,VALID,46,VALID,1.71145,
2006-10-07, 09:53:01,VALID,918.558,VALID,0,VALID,98.1297,VALID,-0.0849042,VALID,17.754,VALID,53,VALID,2.43496,
2006-10-07, 09:54:01,VALID,918.525,VALID,0,VALID,98.206,VALID,-0.0849042,VALID,17.7471,VALID,37,VALID,2.05297,
2006-10-07, 09:55:01,VALID,918.521,VALID,0,VALID,98.2289,VALID,-0.0849042,VALID,17.7575,VALID,40,VALID,1.93118,
2006-10-07, 09:56:01,VALID,918.543,VALID,0,VALID,98.3128,VALID,-0.0509425,VALID,17.7476,VALID,45,VALID,2.49033,
2006-10-07, 09:57:01,VALID,918.552,VALID,0,VALID,98.4095,VALID,-0.101885,VALID,17.7413,VALID,49,VALID,1.53962,
2006-10-07, 09:58:01,VALID,918.559,VALID,0,VALID,98.4527,VALID,-0.0679233,VALID,17.7185,VALID,48,VALID,2.0184,
2006-10-07, 09:59:01,VALID,918.568,VALID,0,VALID,98.4769,VALID,-0.0679233,VALID,17.7284,VALID,34,VALID,1.98661,
2006-10-07, 10:00:01,VALID,918.595,VALID,0,VALID,98.5036,VALID,-0.0339617,VALID,17.7284,VALID,53,VALID,2.3151,
2006-10-07, 10:01:01,VALID,918.63,VALID,0,VALID,98.5125,VALID,-0.0849042,VALID,17.7254,VALID,41,VALID,2.35229,
2006-10-07, 10:02:01,VALID,918.642,VALID,0,VALID,98.4425,VALID,-0.0849042,VALID,17.722,VALID,45,VALID,2.02641,
2006-10-07, 10:03:01,VALID,918.645,VALID,0,VALID,98.4006,VALID,-0.0679233,VALID,17.7312,VALID,52,VALID,1.89602,
2006-10-07, 10:04:00,VALID,918.678,VALID,0,VALID,98.3548,VALID,-0.0849042,VALID,17.7409,VALID,45,VALID,1.67721,
2006-10-07, 10:05:00,VALID,918.683,VALID,0,VALID,98.2925,VALID,-0.0509425,VALID,17.7411,VALID,47,VALID,1.46893,
2006-10-07, 10:06:01,VALID,918.684,VALID,0,VALID,98.22,VALID,-0.0169808,VALID,17.7538,VALID,46,VALID,1.81795,
2006-10-07, 10:07:01,VALID,918.679,VALID,0,VALID,98.117,VALID,-0.0849042,VALID,17.7704,VALID,44,VALID,1.73438,
2006-10-07, 10:08:01,VALID,918.69,VALID,0,VALID,98.0127,VALID,-0.0339617,VALID,17.7897,VALID,54,VALID,1.57831,
2006-10-07, 10:09:01,VALID,918.699,VALID,0,VALID,97.9809,VALID,-0.0849042,VALID,17.8063,VALID,49,VALID,1.13205,
2006-10-07, 10:10:01,VALID,918.714,VALID,0,VALID,97.8983,VALID,-0.0679233,VALID,17.8024,VALID,42,VALID,1.5087,
2006-10-07, 10:11:01,VALID,918.733,VALID,0,VALID,97.897,VALID,-0.0849042,VALID,17.819,VALID,37,VALID,0.616071,
2006-10-07, 10:12:01,VALID,918.751,VALID,0,VALID,97.9097,VALID,-0.101885,VALID,17.8188,VALID,15,VALID,0.424716,
2006-10-07, 10:13:01,VALID,918.777,VALID,0,VALID,98.0661,VALID,-0.0849042,VALID,17.802,VALID,15,VALID,0.0816592,
2006-10-07, 10:14:01,VALID,918.787,VALID,0,VALID,98.1564,VALID,-0.101885,VALID,17.7994,VALID,15,VALID,0.0190549,
2006-10-07, 10:15:01,VALID,918.813,VALID,0,VALID,98.3586,VALID,-0.0679233,VALID,17.7927,VALID,15,VALID,0.00609756,
2006-10-07, 10:16:01,VALID,918.817,VALID,0,VALID,98.5494,VALID,-0.0849042,VALID,17.7672,VALID,15,VALID,0.386896,
2006-10-07, 10:17:01,VALID,918.829,VALID,0,VALID,98.8189,VALID,-0.0509425,VALID,17.7183,VALID,15,VALID,0.231326,
2006-10-07, 10:18:01,VALID,918.852,VALID,0,VALID,99.1228,VALID,-0.0849042,VALID,17.6895,VALID,14,VALID,0.508013,
2006-10-07, 10:19:01,VALID,918.858,VALID,0,VALID,99.2182,VALID,-0.0849042,VALID,17.6575,VALID,314,VALID,0.689499,
2006-10-07, 10:20:01,VALID,918.873,VALID,0,VALID,99.3924,VALID,-0.0849042,VALID,17.6121,VALID,270,VALID,0.510975,
2006-10-07, 10:21:01,VALID,918.876,VALID,0,VALID,99.559,VALID,-0.0849042,VALID,17.5734,VALID,270,VALID,0.21892,
2006-10-07, 10:22:01,VALID,918.859,VALID,0,VALID,99.7052,VALID,-0.0339617,VALID,17.5439,VALID,270,VALID,0.139353,
2006-10-07, 10:23:01,VALID,918.848,VALID,0,VALID,99.8591,VALID,0.0339617,VALID,17.5202,VALID,270,VALID,0,
2006-10-07, 10:24:01,VALID,918.85,VALID,0,VALID,99.999,VALID,0.0169808,VALID,17.5142,VALID,270,VALID,0,
2006-10-07, 10:25:01,VALID,918.883,VALID,0,VALID,100,VALID,0.0169808,VALID,17.5243,VALID,269,VALID,0.521484,
2006-10-07, 10:26:01,VALID,918.886,VALID,0,VALID,100,VALID,0,VALID,17.4947,VALID,260,VALID,0.680246,
2006-10-07, 10:27:01,VALID,918.905,VALID,0,VALID,100,VALID,0,VALID,17.4594,VALID,253,VALID,0.794457,
2006-10-07, 10:28:01,VALID,918.91,VALID,0,VALID,100,VALID,0.0339617,VALID,17.4304,VALID,245,VALID,0.454613,
2006-10-07, 10:29:01,VALID,918.925,VALID,0,VALID,100,VALID,0.0339617,VALID,17.4366,VALID,245,VALID,0.303622,
2006-10-07, 10:30:01,VALID,918.913,VALID,0,VALID,100,VALID,0.0169808,VALID,17.4465,VALID,245,VALID,0.248811,
2006-10-07, 10:31:01,VALID,918.929,VALID,0,VALID,100,VALID,0,VALID,17.4527,VALID,245,VALID,0.34484,
2006-10-07, 10:32:01,VALID,918.921,VALID,0,VALID,100,VALID,0,VALID,17.4336,VALID,245,VALID,0.385861,
2006-10-07, 10:33:00,VALID,918.922,VALID,0,VALID,100,VALID,0.0169808,VALID,17.414,VALID,246,VALID,0.047247,
2006-10-07, 10:34:00,VALID,918.91,VALID,0,VALID,100,VALID,0.0509425,VALID,17.4013,VALID,246,VALID,0,
2006-10-07, 10:35:00,VALID,918.907,VALID,0,VALID,100,VALID,0.0509425,VALID,17.4009,VALID,246,VALID,0.00114329,
2006-10-07, 10:36:00,VALID,918.908,VALID,0,VALID,100,VALID,0.0509425,VALID,17.4078,VALID,246,VALID,0,
2006-10-07, 10:37:00,VALID,918.912,VALID,0,VALID,100,VALID,0,VALID,17.3919,VALID,246,VALID,0,
2006-10-07, 10:38:00,VALID,918.886,VALID,0,VALID,100,VALID,-0.0679233,VALID,17.39,VALID,246,VALID,0.0658482,
2006-10-07, 10:39:00,VALID,918.847,VALID,0,VALID,100,VALID,-0.0679233,VALID,17.3766,VALID,246,VALID,0.0225074,
2006-10-07, 10:40:00,VALID,918.827,VALID,0,VALID,100,VALID,-0.0679233,VALID,17.3773,VALID,246,VALID,0.284226,
2006-10-07, 10:41:00,VALID,918.81,VALID,0,VALID,100,VALID,-0.0679233,VALID,17.3609,VALID,248,VALID,0.663352,
2006-10-07, 10:42:00,VALID,918.792,VALID,0,VALID,100,VALID,-0.0849042,VALID,17.3515,VALID,281,VALID,0.883594,